Regional Weather Roundup
Issued by NWS

Home | Current Version | Previous Version | Graphics & Text | Print | Product List | Glossary On
Versions: 1 2 3 4 5 6 7 8 9 10 11 12 13 14 15 16 17 18 19 20 21 22 23 24 25 26 27 28 29 30 31 32 33 34 35 36 37 38 39 40 41 42 43 44 45 46 47 48 49 50
000
ASUS43 KLSX 181007
RWRMO

WEATHER SUMMARY FOR MISSOURI
NATIONAL WEATHER SERVICE SPRINGFIELD MO
400 AM CST SUN FEB 18 2018

NOTE: "FAIR" INDICATES FEW OR NO CLOUDS BELOW 12,000 FEET WITH NO
       SIGNIFICANT WEATHER AND/OR OBSTRUCTIONS TO VISIBILITY.
       CURRENT SKY AND/OR WEATHER CONDITIONS ARE NOT AVAILABLE FOR
       CHILLICOTHE AND FARMINGTON.

MOZ001>031-035>038-043-044-053-054-181100-
...NORTHERN AND WESTERN MISSOURI...

CITY           SKY/WX    TMP DP  RH WIND       PRES   REMARKS
KANSAS CTY INT CLOUDY    36  22  56 S13       30.10F WCI  27
KANSAS C DTWN  CLOUDY    43  28  55 S10       30.12F
LEE`S SUMMIT   CLOUDY    37  27  67 S14       30.13F WCI  28
ST JOSEPH      CLOUDY    33  23  66 S8        30.10F WCI  26
CHILLICOTHE      N/A     27  19  72 SE5       30.14F WCI  22
KIRKSVILLE     CLEAR     25  22  88 SE10      30.15F WCI  15

$$
MOZ066>068-077>081-088>096-101>105-181100-
...SOUTHWEST MISSOURI...

CITY           SKY/WX    TMP DP  RH WIND       PRES   REMARKS
SPRINGFIELD    CLOUDY    30  30 100 SE7       30.18F FOG     WCI  23
JOPLIN         CLOUDY    38  34  85 SE8       30.18F

$$
MOZ032>034-039>042-045>050-055>058-069>072-181100-
...CENTRAL MISSOURI...

CITY           SKY/WX    TMP DP  RH WIND       PRES   REMARKS
COLUMBIA       CLOUDY    31  24  75 SE9       30.19F WCI  23
JEFFERSON CITY PTCLDY    25  24  96 SE8       30.21F WCI  16
ROLLA          CLOUDY    33  29  85 SE12      30.22F WCI  24
SEDALIA        CLOUDY    34  27  75 S12       30.19R WCI  25
WHITEMAN AFB   PTCLDY    30  24  76 S9        30.13F WCI  22
WARRENSBURG    PTCLDY    32  25  74 S6        30.17F WCI  26
OSAGE BEACH    CLOUDY    30  29  96 SE6       30.21F WCI  24

$$
MOZ051-052-059>065-181100-
...EAST CENTRAL MISSOURI...

CITY           SKY/WX    TMP DP  RH WIND       PRES   REMARKS
ST LOUIS INTL  CLOUDY    29  27  92 SE3       30.27F
SPIRIT OF STL  CLOUDY    24  23  96 CALM      30.26F
ST CHARLES     FOG       22  21  96 E3        30.27S VSB 1/4

$$
MOZ072>076-082>087-097>100-106>115-181100-
...SOUTH CENTRAL AND SOUTHEAST MISSOURI...

CITY           SKY/WX    TMP DP  RH WIND       PRES   REMARKS
CAPE GIRARDEAU FOG       31  30  96 CALM      30.31S VSB 1/4
FARMINGTON     FOG       24  23  96 CALM      30.28S VSB 1/4
POPLAR BLUFF   FAIR      29  28  96 CALM      30.29S
WEST PLAINS    CLOUDY    28  27  96 CALM      30.25S FOG

$$



USA.gov is the U.S. government's official web portal to all federal, state and local government web resources and services.